{"data":{"norad_id":62152,"epoch":"2026-05-25T04:54:17.373600Z","epoch_age_seconds":67563,"freshness":"FRESH","line1":"1 62152U 24224P   26145.20436775  .00016279  00000+0  59967-3 0  9995","line2":"2 62152  42.9962  89.3089 0001462 260.5669  99.5017 15.27586186 84084","mean_motion":15.27586186,"eccentricity":0.0001462,"inclination_deg":42.9962,"raan_deg":89.3089,"arg_perigee_deg":260.5669,"mean_anomaly_deg":99.5017,"bstar":0.00059967,"rev_number":8408,"period_min":94.266366978,"perigee_km":482.02747029359,"apogee_km":484.03367569193,"semimajor_km":6861.1675729928,"source":"CELESTRAK","updated_at":"2026-05-25T13:38:19.593251Z"}}